DW2488 Weather Reports


Display with metric or nautical units.
time (UTC)temp
F
wind
direction
speed
MPH
gust
MPH
rain 1hr
in
rain 24hr
in
rain mn
in
humidity
%
barometer
mb
20260509123111 49 173 3.0 6.0 0.00 0.00 0.00 82 1026.6
20260509121609 50 159 3.0 6.0 0.00 0.00 0.00 81 1026.6
20260509120112 50 144 3.0 6.0 0.00 0.00 0.00 82 1026.7
20260509114612 50 156 2.0 5.0 0.00 0.00 0.00 82 1026.7
20260509113111 50 135 1.0 3.0 0.00 0.00 0.00 81 1026.6
20260509111610 50 100 0.0 0.0 0.00 0.00 0.00 81 1026.5
20260509110111 50 98 0.0 0.0 0.00 0.00 0.00 81 1026.5
20260509104611 50 97 0.0 0.0 0.00 0.00 0.00 80 1026.5
20260509103111 51 97 0.0 0.0 0.00 0.00 0.00 79 1026.5
20260509101611 52 96 0.0 0.0 0.00 0.00 0.00 78 1026.2
20260509100120 52 0 0.0 2.0 0.00 0.00 0.00 77 1026.3
20260509094612 53 0 1.0 2.0 0.00 0.00 0.00 77 1025.9
20260509093112 54 0 0.0 2.0 0.00 0.00 0.00 75 1025.8
20260509091611 54 0 1.0 2.0 0.00 0.00 0.00 75 1025.7
20260509090109 55 96 0.0 0.0 0.00 0.00 0.00 73 1025.6
20260509084610 56 95 1.0 2.0 0.00 0.00 0.00 72 1025.4
20260509083110 57 95 0.0 2.0 0.00 0.00 0.00 71 1025.2
20260509081616 58 95 1.0 2.0 0.00 0.00 0.00 70 1025.1
20260509080111 59 95 1.0 2.0 0.00 0.00 0.00 68 1024.8
20260509074610 60 95 0.0 2.0 0.00 0.00 0.00 66 1024.8
20260509073109 61 95 1.0 4.0 0.00 0.00 0.00 65 1024.4
20260509071616 63 102 1.0 4.0 0.00 0.00 0.00 63 1024.4
20260509070045 64 0 1.0 6.0 0.00 0.00 0.00 61 1024.1
20260509064536 65 124 4.0 10.0 0.00 0.00 0.00 60 1023.8
20260509063034 66 126 5.0 10.0 0.00 0.00 0.00 58 1023.7
20260509061537 67 101 5.0 10.0 0.00 0.00 0.00 57 1023.5
20260509060035 68 107 5.0 13.0 0.00 0.00 0.00 55 1023.5
20260509054531 70 0 6.0 11.0 0.00 0.00 0.00 52 1023.2
20260509053029 73 63 0.0 3.0 0.00 0.00 0.00 43 1023.1
20260509051536 73 287 1.0 6.0 0.00 0.00 0.00 44 1022.9
20260509050017 72 213 1.0 4.0 0.00 0.00 0.00 45 1023.0
20260509044519 71 131 2.0 4.0 0.00 0.00 0.00 46 1023.0
20260509043019 70 106 1.0 3.0 0.00 0.00 0.00 49 1023.0
20260509041458 70 0 1.0 4.0 0.00 0.00 0.00 47 1022.9
20260509035933 70 0 2.0 6.0 0.00 0.00 0.00 47 1022.9
20260509034434 70 0 2.0 5.0 0.00 0.00 0.00 47 1023.1
20260509032927 71 0 2.0 9.0 0.00 0.00 0.00 46 1023.1
20260509031422 71 0 2.0 8.0 0.00 0.00 0.00 46 1023.3
20260509025923 70 193 2.0 7.0 0.00 0.00 0.00 47 1023.3
20260509024419 70 250 2.0 6.0 0.00 0.00 0.00 49 1023.5
20260509022919 70 215 3.0 6.0 0.00 0.00 0.00 46 1023.8
20260509021412 69 207 4.0 8.0 0.00 0.00 0.00 47 1024.0
20260509015910 69 115 2.0 9.0 0.00 0.00 0.00 47 1024.3
20260509014411 68 234 2.0 7.0 0.00 0.00 0.00 50 1024.4
20260509012909 68 172 4.0 8.0 0.00 0.00 0.00 51 1024.4
20260509011418 68 126 3.0 8.0 0.00 0.00 0.00 50 1024.8
20260509005917 68 219 3.0 6.0 0.00 0.00 0.00 52 1025.1
20260509004411 67 200 2.0 6.0 0.00 0.00 0.00 54 1025.2
20260509002910 66 146 2.0 9.0 0.00 0.00 0.00 55 1025.1
20260509001410 65 178 3.0 8.0 0.00 0.00 0.00 60 1025.1
20260508235917 64 196 4.0 10.0 0.00 0.00 0.00 61 1025.2
20260508234409 62 168 4.0 9.0 0.00 0.00 0.00 61 1025.2
20260508232915 61 155 4.0 7.0 0.00 0.00 0.00 65 1025.3
20260508231424 58 175 3.0 6.0 0.00 0.00 0.00 69 1025.3
20260508225917 55 0 3.0 6.0 0.00 0.00 0.00 74 1025.4
20260508224411 53 169 3.0 6.0 0.00 0.00 0.00 77 1025.3
20260508222917 52 0 2.0 9.0 0.00 0.00 0.00 79 1025.2
20260508221411 50 154 2.0 5.0 0.00 0.00 0.00 81 1025.0
20260508215911 49 0 2.0 6.0 0.00 0.00 0.00 82 1024.8
20260508214411 48 0 2.0 3.0 0.00 0.00 0.00 83 1024.8
20260508212911 47 0 2.0 4.0 0.00 0.00 0.00 83 1024.5
20260508211416 47 0 2.0 3.0 0.00 0.00 0.00 83 1024.5
20260508205917 47 0 1.0 4.0 0.00 0.00 0.00 81 1024.3
20260508204411 47 0 1.0 3.0 0.00 0.00 0.00 81 1024.0
20260508202916 48 0 2.0 4.0 0.00 0.00 0.00 81 1023.8
20260508201416 48 0 2.0 4.0 0.00 0.00 0.00 81 1023.5
20260508195901 48 0 1.0 3.0 0.00 0.00 0.00 80 1023.3
20260508194354 48 0 3.0 5.0 0.00 0.00 0.00 80 1023.2
20260508192842 49 0 2.0 4.0 0.00 0.00 0.00 80 1022.8
20260508191344 49 0 1.0 4.0 0.00 0.00 0.00 79 1022.8
20260508185841 49 0 3.0 6.0 0.00 0.00 0.00 79 1022.5
20260508184333 50 160 2.0 6.0 0.00 0.00 0.00 78 1022.5
20260508182825 50 154 2.0 5.0 0.00 0.00 0.00 78 1022.3
20260508181319 50 157 1.0 5.0 0.00 0.00 0.00 78 1022.2
20260508175814 50 154 2.0 3.0 0.00 0.00 0.00 78 1022.3
20260508174312 50 153 2.0 5.0 0.00 0.00 0.00 78 1022.2
20260508172813 50 0 2.0 5.0 0.00 0.00 0.00 79 1022.2
20260508171310 49 0 2.0 4.0 0.00 0.00 0.00 79 1022.1
20260508165809 48 0 0.0 2.0 0.00 0.00 0.00 79 1022.0
20260508164316 48 0 1.0 3.0 0.00 0.00 0.00 77 1022.1
20260508162811 49 0 1.0 4.0 0.00 0.00 0.00 76 1022.4
20260508161316 50 139 1.0 3.0 0.00 0.00 0.00 76 1022.1
20260508155741 51 139 2.0 4.0 0.00 0.00 0.00 76 1022.2
20260508154214 51 138 2.0 4.0 0.00 0.00 0.00 76 1022.0
20260508152715 50 126 3.0 5.0 0.00 0.00 0.00 77 1022.2
20260508151216 49 132 3.0 4.0 0.00 0.00 0.00 79 1022.2
20260508145711 48 0 1.0 4.0 0.00 0.00 0.00 78 1022.1
20260508144150 49 0 1.0 4.0 0.00 0.00 0.00 77 1022.2
20260508142652 49 0 0.0 1.0 0.00 0.00 0.00 76 1022.1
20260508141111 50 141 0.0 3.0 0.00 0.00 0.00 75 1022.1
20260508135559 50 0 1.0 4.0 0.00 0.00 0.00 74 1022.1
20260508134058 51 155 1.0 3.0 0.00 0.00 0.00 74 1021.9
20260508132554 50 155 2.0 4.0 0.00 0.00 0.00 74 1022.1
20260508131048 51 0 0.0 2.0 0.00 0.00 0.00 74 1022.0
20260508125539 51 156 0.0 1.0 0.00 0.00 0.00 73 1021.9